JBU1188 TNCM-KJFK

Flight info

Callsign JBU1188
Flight time N/A
Altitude 34000
Route TRNKY DCT CAFFE DCT THANK L456 HANCY/M077F340 L456 VINSO/M077F360 L456 DARUX L459 SAVIK/N0443F360 DCT YAALE/N0447F370 Y495 MOUGH/N0449F360 Y495 CAMRN
Aircraft A320/M-SDE3FGHIRWY/LB1

Departure

Time N/A
Airport Princess Juliana International Airport (TNCM)

Arrival

Time 2026-05-04 22:36
Airport John F. Kennedy International Airport (KJFK)
Time Latitude Longitude Altitude Speed Heading
2026-05-04 21:36 37.05714 -70.32842 34169 ft 411 kts 313°
2026-05-04 21:37 37.07958 -70.35059 34387 ft 409 kts 313°
2026-05-04 21:37 37.10187 -70.37268 34605 ft 408 kts 313°
2026-05-04 21:37 37.12425 -70.39484 34786 ft 408 kts 313°
2026-05-04 21:37 37.14625 -70.41669 34963 ft 408 kts 313°
2026-05-04 21:38 37.16856 -70.43886 35127 ft 408 kts 313°
2026-05-04 21:38 37.19091 -70.46102 35266 ft 408 kts 313°
2026-05-04 21:38 37.21318 -70.48319 35378 ft 409 kts 313°
2026-05-04 21:39 37.25803 -70.52785 35623 ft 410 kts 314°
2026-05-04 21:39 37.28036 -70.55008 35740 ft 410 kts 313°
2026-05-04 21:39 37.30260 -70.57226 35844 ft 410 kts 313°
2026-05-04 21:39 37.32507 -70.59467 35962 ft 410 kts 314°
2026-05-04 21:40 37.34725 -70.61685 36067 ft 411 kts 313°
2026-05-04 21:40 37.39214 -70.66175 36076 ft 414 kts 313°
2026-05-04 21:41 37.43724 -70.70695 36074 ft 412 kts 313°
2026-05-04 21:41 37.48215 -70.75201 36076 ft 412 kts 313°
2026-05-04 21:42 37.52696 -70.79703 36076 ft 412 kts 313°
2026-05-04 21:42 37.57171 -70.84212 36078 ft 412 kts 313°
2026-05-04 21:43 37.61638 -70.88724 36077 ft 412 kts 313°
2026-05-04 21:43 37.66097 -70.93232 36078 ft 410 kts 313°
2026-05-04 21:44 37.70310 -70.98039 36082 ft 405 kts 308°
2026-05-04 21:44 37.74047 -71.03271 36076 ft 400 kts 302°
2026-05-04 21:45 37.77427 -71.08843 36079 ft 400 kts 301°
2026-05-04 21:45 37.80764 -71.14459 36077 ft 400 kts 300°
2026-05-04 21:46 37.84083 -71.20058 36074 ft 399 kts 301°
2026-05-04 21:46 37.87431 -71.25716 36083 ft 400 kts 301°
2026-05-04 21:47 37.90743 -71.31324 36078 ft 401 kts 301°
2026-05-04 21:47 37.94094 -71.37000 36072 ft 401 kts 301°
2026-05-04 21:48 37.97425 -71.42660 36076 ft 402 kts 301°
2026-05-04 21:48 38.00707 -71.48243 36069 ft 401 kts 301°
2026-05-04 21:49 38.04067 -71.53969 36064 ft 404 kts 301°
2026-05-04 21:49 38.07413 -71.59684 36061 ft 404 kts 301°
2026-05-04 21:50 38.10739 -71.65376 36062 ft 403 kts 301°
2026-05-04 21:50 38.14096 -71.71134 36046 ft 404 kts 301°
2026-05-04 21:51 38.17432 -71.76867 36041 ft 405 kts 301°
2026-05-04 21:51 38.20780 -71.82627 36047 ft 404 kts 301°
2026-05-04 21:52 38.24464 -71.88018 36040 ft 412 kts 313°
2026-05-04 21:52 38.29275 -71.92197 36030 ft 424 kts 327°
2026-05-04 21:53 38.34904 -71.94685 36020 ft 438 kts 342°
2026-05-04 21:53 38.41065 -71.95266 36025 ft 447 kts 353°
2026-05-04 21:54 38.47250 -71.95171 36022 ft 446 kts 354°
2026-05-04 21:54 38.53457 -71.95071 36015 ft 445 kts 354°
2026-05-04 21:55 38.59653 -71.95000 36023 ft 445 kts 354°
2026-05-04 21:55 38.65825 -71.94918 36024 ft 443 kts 354°
2026-05-04 21:56 38.71970 -71.94836 36230 ft 443 kts 354°
2026-05-04 21:56 38.75081 -71.94793 36119 ft 442 kts 354°
2026-05-04 21:56 38.78155 -71.94754 36062 ft 440 kts 354°
2026-05-04 21:57 38.84255 -71.94679 36025 ft 438 kts 354°
2026-05-04 21:57 38.90358 -71.94643 36018 ft 436 kts 352°
2026-05-04 21:58 38.96254 -71.95769 36024 ft 427 kts 340°
2026-05-04 21:58 39.01745 -71.98480 36013 ft 419 kts 328°
2026-05-04 21:59 39.06550 -72.02515 36018 ft 414 kts 317°
2026-05-04 21:59 39.11001 -72.07195 36025 ft 414 kts 316°
2026-05-04 22:00 39.15432 -72.11877 36026 ft 413 kts 317°
2026-05-04 22:00 39.19796 -72.16447 36011 ft 413 kts 317°
2026-05-04 22:01 39.24231 -72.21103 36016 ft 412 kts 317°
2026-05-04 22:01 39.28670 -72.25777 36021 ft 412 kts 317°
2026-05-04 22:02 39.33136 -72.30489 36013 ft 412 kts 317°
2026-05-04 22:02 39.37582 -72.35194 36002 ft 412 kts 318°
2026-05-04 22:03 39.41985 -72.39859 35950 ft 411 kts 318°
2026-05-04 22:03 39.44224 -72.42239 35528 ft 411 kts 318°
2026-05-04 22:03 39.46410 -72.44562 34985 ft 411 kts 319°
2026-05-04 22:03 39.48625 -72.46920 34341 ft 412 kts 319°
2026-05-04 22:04 39.50830 -72.49266 33673 ft 413 kts 319°
2026-05-04 22:04 39.53036 -72.51616 32976 ft 415 kts 320°
2026-05-04 22:04 39.55269 -72.53994 32312 ft 415 kts 320°
2026-05-04 22:04 39.57486 -72.56356 31670 ft 413 kts 320°
2026-05-04 22:05 39.59687 -72.58704 31035 ft 411 kts 320°
2026-05-04 22:05 39.61912 -72.61079 30325 ft 409 kts 320°
2026-05-04 22:05 39.64071 -72.63385 29857 ft 401 kts 320°
2026-05-04 22:05 39.66201 -72.65662 29461 ft 392 kts 319°
2026-05-04 22:06 39.68298 -72.67909 29058 ft 386 kts 319°
2026-05-04 22:06 39.70360 -72.70125 28628 ft 384 kts 319°
2026-05-04 22:06 39.72400 -72.72318 28205 ft 381 kts 319°
2026-05-04 22:06 39.74446 -72.74518 27764 ft 378 kts 319°
2026-05-04 22:07 39.76442 -72.76664 27325 ft 375 kts 319°
2026-05-04 22:07 39.78461 -72.78833 26900 ft 372 kts 319°
2026-05-04 22:07 39.80289 -72.81134 26423 ft 368 kts 307°
2026-05-04 22:07 39.81557 -72.84029 25975 ft 371 kts 292°
2026-05-04 22:08 39.82158 -72.87325 25510 ft 373 kts 277°
2026-05-04 22:08 39.82156 -72.90662 25083 ft 372 kts 271°
2026-05-04 22:08 39.82067 -72.94038 24640 ft 369 kts 271°
2026-05-04 22:08 39.81976 -72.97345 24285 ft 367 kts 270°
2026-05-04 22:09 39.81887 -73.00532 24031 ft 366 kts 270°
2026-05-04 22:09 39.81793 -73.03828 23642 ft 363 kts 270°
2026-05-04 22:09 39.81701 -73.07120 22743 ft 370 kts 270°
2026-05-04 22:09 39.81604 -73.10493 22143 ft 368 kts 270°
2026-05-04 22:10 39.81508 -73.13779 21650 ft 365 kts 270°
2026-05-04 22:10 39.81413 -73.17039 21154 ft 362 kts 270°
2026-05-04 22:10 39.81319 -73.20287 20678 ft 358 kts 270°
2026-05-04 22:10 39.81280 -73.23486 20205 ft 354 kts 275°
2026-05-04 22:11 39.81603 -73.26633 19735 ft 350 kts 283°
2026-05-04 22:11 39.82296 -73.29634 19261 ft 347 kts 291°
2026-05-04 22:11 39.83203 -73.32542 18797 ft 345 kts 292°
2026-05-04 22:11 39.84125 -73.35407 18323 ft 343 kts 292°
2026-05-04 22:12 39.85043 -73.38254 17862 ft 341 kts 292°
2026-05-04 22:12 39.85957 -73.41105 17400 ft 339 kts 292°
2026-05-04 22:12 39.86861 -73.43931 16940 ft 337 kts 292°
2026-05-04 22:12 39.87758 -73.46742 16497 ft 335 kts 292°
2026-05-04 22:13 39.88642 -73.49519 16044 ft 333 kts 292°
2026-05-04 22:13 39.89525 -73.52296 15590 ft 331 kts 292°
2026-05-04 22:13 39.90399 -73.55050 15143 ft 329 kts 292°
2026-05-04 22:13 39.91268 -73.57786 14701 ft 326 kts 292°
2026-05-04 22:14 39.92123 -73.60477 14272 ft 324 kts 292°
2026-05-04 22:14 39.93041 -73.63171 13834 ft 322 kts 295°
2026-05-04 22:14 39.94023 -73.65763 13404 ft 320 kts 295°
2026-05-04 22:14 39.95005 -73.68343 12970 ft 318 kts 295°
2026-05-04 22:15 39.95991 -73.70934 12507 ft 317 kts 295°
2026-05-04 22:15 39.96973 -73.73519 12053 ft 316 kts 295°
2026-05-04 22:15 39.97945 -73.76080 11614 ft 315 kts 295°
2026-05-04 22:15 39.98899 -73.78591 11353 ft 304 kts 295°
2026-05-04 22:16 39.99905 -73.80920 11201 ft 282 kts 308°
2026-05-04 22:16 40.01349 -73.82377 11078 ft 272 kts 332°
2026-05-04 22:16 40.03201 -73.82950 10966 ft 281 kts 354°
2026-05-04 22:16 40.05184 -73.82449 10996 ft 296 kts 19°
2026-05-04 22:17 40.06947 -73.80946 11022 ft 303 kts 32°
2026-05-04 22:17 40.08581 -73.79286 10854 ft 297 kts 33°
2026-05-04 22:17 40.10217 -73.77616 10243 ft 296 kts 32°
2026-05-04 22:17 40.11853 -73.75966 9576 ft 296 kts 32°
2026-05-04 22:18 40.13480 -73.74333 9149 ft 296 kts 33°
2026-05-04 22:18 40.15113 -73.72693 9009 ft 293 kts 33°
2026-05-04 22:18 40.16737 -73.71062 9003 ft 295 kts 33°
2026-05-04 22:18 40.18356 -73.69458 8841 ft 296 kts 32°
2026-05-04 22:19 40.20006 -73.67841 8476 ft 297 kts 32°
2026-05-04 22:19 40.21665 -73.66222 8174 ft 294 kts 32°
2026-05-04 22:19 40.23312 -73.64616 7849 ft 292 kts 32°
2026-05-04 22:19 40.24955 -73.63017 7577 ft 290 kts 32°
2026-05-04 22:20 40.26562 -73.61453 7266 ft 288 kts 32°
2026-05-04 22:20 40.28169 -73.59898 6963 ft 286 kts 32°
2026-05-04 22:20 40.29768 -73.58359 6659 ft 285 kts 32°
2026-05-04 22:20 40.31358 -73.56831 6351 ft 285 kts 32°
2026-05-04 22:21 40.32956 -73.55304 6066 ft 284 kts 32°
2026-05-04 22:21 40.34571 -73.53768 5758 ft 284 kts 32°
2026-05-04 22:21 40.36164 -73.52261 5449 ft 283 kts 32°
2026-05-04 22:21 40.37752 -73.50765 5156 ft 283 kts 32°
2026-05-04 22:22 40.39359 -73.49264 4847 ft 282 kts 32°
2026-05-04 22:22 40.40964 -73.47780 4548 ft 281 kts 32°
2026-05-04 22:22 40.42560 -73.46312 4242 ft 281 kts 32°
2026-05-04 22:22 40.44189 -73.44818 4009 ft 280 kts 32°
2026-05-04 22:23 40.45783 -73.43362 3995 ft 281 kts 32°
2026-05-04 22:23 40.47502 -73.42161 3977 ft 276 kts 11°
2026-05-04 22:23 40.49390 -73.41981 4000 ft 271 kts 352°
2026-05-04 22:23 40.51268 -73.42248 3992 ft 269 kts 348°
2026-05-04 22:24 40.53129 -73.42590 3987 ft 269 kts 347°
2026-05-04 22:24 40.54977 -73.42942 3989 ft 269 kts 347°
2026-05-04 22:24 40.56840 -73.43304 3981 ft 269 kts 347°
2026-05-04 22:24 40.58679 -73.43661 3974 ft 261 kts 347°
2026-05-04 22:25 40.60446 -73.43996 3974 ft 248 kts 347°
2026-05-04 22:25 40.62106 -73.44302 3973 ft 234 kts 347°
2026-05-04 22:25 40.63677 -73.44582 3973 ft 220 kts 347°
2026-05-04 22:25 40.65154 -73.44835 3966 ft 209 kts 347°
2026-05-04 22:26 40.66561 -73.45066 3962 ft 197 kts 347°
2026-05-04 22:26 40.67915 -73.45282 3972 ft 195 kts 347°
2026-05-04 22:26 40.69270 -73.45496 3975 ft 195 kts 347°
2026-05-04 22:26 40.70647 -73.45718 3746 ft 200 kts 347°
2026-05-04 22:27 40.72044 -73.45948 3420 ft 205 kts 347°
2026-05-04 22:27 40.73468 -73.46184 3128 ft 209 kts 347°
2026-05-04 22:27 40.74942 -73.46430 2830 ft 212 kts 347°
2026-05-04 22:27 40.76407 -73.46680 2540 ft 216 kts 347°
2026-05-04 22:28 40.77897 -73.47010 2235 ft 217 kts 334°
2026-05-04 22:28 40.79084 -73.48072 1990 ft 199 kts 304°
2026-05-04 22:28 40.79901 -73.49476 1972 ft 183 kts 298°
2026-05-04 22:28 40.80603 -73.50826 2032 ft 179 kts 297°
2026-05-04 22:29 40.81307 -73.52210 2025 ft 180 kts 297°
2026-05-04 22:29 40.82001 -73.53577 1995 ft 180 kts 297°
2026-05-04 22:29 40.82704 -73.54967 1987 ft 180 kts 297°
2026-05-04 22:29 40.83398 -73.56332 1983 ft 180 kts 295°
2026-05-04 22:30 40.83786 -73.57829 1958 ft 169 kts 263°
2026-05-04 22:30 40.83360 -73.59210 1988 ft 166 kts 233°
2026-05-04 22:30 40.82610 -73.60403 1987 ft 166 kts 228°
2026-05-04 22:30 40.81808 -73.61498 1979 ft 166 kts 223°
2026-05-04 22:31 40.80904 -73.62465 1978 ft 167 kts 217°
2026-05-04 22:31 40.79956 -73.63335 1969 ft 164 kts 215°
2026-05-04 22:31 40.78995 -73.64156 1981 ft 166 kts 214°
2026-05-04 22:31 40.78014 -73.64954 1967 ft 159 kts 213°
2026-05-04 22:32 40.77116 -73.65662 1947 ft 142 kts 213°
2026-05-04 22:32 40.76299 -73.66299 1948 ft 134 kts 213°
2026-05-04 22:32 40.75470 -73.66947 1985 ft 143 kts 213°
2026-05-04 22:32 40.74609 -73.67618 1985 ft 144 kts 213°
2026-05-04 22:33 40.73741 -73.68291 1981 ft 142 kts 213°
2026-05-04 22:33 40.72919 -73.68929 1899 ft 134 kts 213°
2026-05-04 22:33 40.72137 -73.69538 1732 ft 129 kts 213°
2026-05-04 22:33 40.71369 -73.70138 1556 ft 126 kts 212°
2026-05-04 22:34 40.70610 -73.70730 1391 ft 125 kts 212°
2026-05-04 22:34 40.69873 -73.71307 1236 ft 125 kts 211°
2026-05-04 22:34 40.69132 -73.71886 1068 ft 124 kts 211°
2026-05-04 22:34 40.68389 -73.72466 906 ft 124 kts 210°
2026-05-04 22:35 40.67644 -73.73050 747 ft 124 kts 210°
2026-05-04 22:35 40.66904 -73.73629 579 ft 123 kts 209°
2026-05-04 22:35 40.66169 -73.74206 423 ft 123 kts 209°
2026-05-04 22:35 40.65432 -73.74777 265 ft 122 kts 207°
2026-05-04 22:36 40.64707 -73.75339 100 ft 120 kts 207°
2026-05-04 22:36 40.64000 -73.75895 23 ft 108 kts 208°
2026-05-04 22:36 40.63498 -73.76279 22 ft 59 kts 211°
2026-05-04 22:36 40.63292 -73.76487 22 ft 17 kts 240°
2026-05-04 22:37 40.63244 -73.76602 22 ft 12 kts 246°
2026-05-04 22:37 40.63240 -73.76718 22 ft 12 kts 285°
2026-05-04 22:37 40.63285 -73.76823 22 ft 13 kts 302°
2026-05-04 22:37 40.63334 -73.76919 22 ft 12 kts 319°
2026-05-04 22:38 40.63427 -73.76932 22 ft 14 kts
2026-05-04 22:38 40.63525 -73.76919 22 ft 14 kts
2026-05-04 22:38 40.63632 -73.76918 22 ft 16 kts
2026-05-04 22:38 40.63747 -73.76915 22 ft 17 kts
2026-05-04 22:39 40.63868 -73.76913 22 ft 17 kts
2026-05-04 22:39 40.63996 -73.76910 22 ft 18 kts
2026-05-04 22:39 40.64119 -73.76893 22 ft 16 kts
2026-05-04 22:39 40.64234 -73.76885 22 ft 16 kts
2026-05-04 22:40 40.64334 -73.76897 22 ft 11 kts 328°
2026-05-04 22:40 40.64405 -73.76959 22 ft 13 kts 332°
2026-05-04 22:40 40.64499 -73.76989 22 ft 14 kts
2026-05-04 22:40 40.64604 -73.76985 22 ft 15 kts 358°
2026-05-04 22:41 40.64713 -73.77017 22 ft 16 kts 329°
2026-05-04 22:41 40.64791 -73.77132 22 ft 17 kts 300°
2026-05-04 22:41 40.64851 -73.77269 22 ft 17 kts 300°
2026-05-04 22:41 40.64911 -73.77405 22 ft 17 kts 299°
2026-05-04 22:42 40.64946 -73.77502 22 ft 5 kts 250°
2026-05-04 22:42 40.64914 -73.77541 22 ft 6 kts 212°
2026-05-04 22:42 40.64870 -73.77579 22 ft 8 kts 217°
2026-05-04 22:42 40.64834 -73.77634 22 ft 8 kts 246°
2026-05-04 22:43 40.64824 -73.77702 22 ft 5 kts 293°
2026-05-04 22:43 40.64835 -73.77723 22 ft 3 kts 303°
2026-05-04 22:43 40.64835 -73.77753 22 ft 3 kts 225°
2026-05-04 22:43 40.64825 -73.77758 22 ft 1 kts 196°
2026-05-04 22:44 40.64810 -73.77769 22 ft 3 kts 208°
2026-05-04 22:44 40.64803 -73.77775 22 ft 0 kts 210°
2026-05-04 22:44 40.64800 -73.77776 22 ft 0 kts 210°
2026-05-04 22:44 40.64799 -73.77778 22 ft 0 kts 210°